Location: ??
(34.9170°N, 135.5016°E)
Time: 23:23:08
(UTC+00:00)

Hubble Space Telescope - Visible Passes

Search period start: 22 January 2021 00:00
Search period end: 01 February 2021 00:00
Orbit: 536 x 539 km, 28.5° (Epoch: 22 January)

Date Brightness Start Highest point End Pass type
(mag) Time Alt. Az. Time Alt. Az. Time Alt. Az.
22 Jan 2.0 09:46:45 10° WSW 09:50:30 33° S 09:51:52 26° SE visible
23 Jan 2.1 09:35:54 10° WSW 09:39:37 32° S 09:41:48 19° SE visible
24 Jan 2.2 09:25:04 10° WSW 09:28:43 30° S 09:31:47 13° SE visible
24 Jan 3.9 11:06:45 10° WSW 11:07:07 11° SW 11:07:07 11° SW visible
25 Jan 2.4 09:14:16 10° WSW 09:17:50 28° S 09:21:24 10° SE visible
25 Jan 3.7 10:56:21 10° SW 10:57:10 12° SW 10:57:10 12° SW visible
26 Jan 2.6 09:03:29 10° WSW 09:06:56 26° SSW 09:10:23 10° SE visible
26 Jan 3.6 10:46:17 10° SW 10:47:19 11° SSW 10:47:19 11° SSW visible
27 Jan 2.9 08:52:44 10° WSW 08:56:01 23° SSW 08:59:19 10° SE visible
28 Jan 3.1 08:42:02 10° WSW 08:45:06 20° SSW 08:48:10 10° SSE visible
